Wind_Speed
17 26 33 27 23 26 26 21 21 26 23 15 14 21 20 9 6 20 24 18 12 12 14 14 14 14 16 20 21 22 24 23 23 25 24 21 19 20 21 22 23 25 25 26
20 23 32 36 29 26 29 25 26 29 21 14 20 24 22 16 21 15 15 12 7 9 14 16 15 15 15 19 23 24 28 25 23 24 25 25 24 22 22 23 24 25 26 27
28 32 28 37 37 31 27 30 26 24 20 18 16 17 22 17 18 10 17 15 14 15 16 16 17 17 18 21 27 26 25 21 21 21 21 22 25 25 24 24 25 25 26 27
30 34 35 31 41 38 35 28 29 27 27 23 17 16 16 20 19 22 24 28 31 27 22 19 18 18 20 23 27 27 26 23 22 23 22 21 22 24 26 26 27 25 26 27
33 32 35 29 33 41 37 29 25 24 25 30 26 22 24 24 20 23 27 29 33 36 21 17 21 21 22 24 26 27 29 27 25 25 25 24 24 23 24 25 26 27 26 27
33 29 33 30 29 37 40 34 28 25 19 21 17 15 15 18 21 27 30 34 36 29 21 18 18 20 24 25 25 26 28 29 28 27 27 27 27 26 25 26 26 26 26 26
33 30 33 31 30 36 37 35 26 21 21 17 22 21 21 25 26 29 32 35 34 34 22 21 22 22 27 29 30 31 32 33 34 32 31 30 29 29 29 27 26 26 26 26
40 36 33 32 28 35 35 34 33 28 25 27 27 24 21 30 28 31 29 33 37 29 28 26 25 27 30 33 35 39 38 38 38 35 34 33 32 30 30 29 28 27 27 26
42 39 39 35 33 31 32 33 34 37 34 34 36 34 33 32 32 34 22 27 35 34 31 29 29 31 32 33 33 35 37 37 38 37 36 35 32 31 32 30 29 29 28 28
30 36 32 40 38 39 39 41 42 38 39 44 43 43 40 36 24 25 27 34 37 33 34 32 33 33 33 33 36 37 36 36 36 35 34 33 31 31 30 30 31 30 30 30
16 23 34 31 38 46 44 47 40 43 47 48 50 44 45 23 20 28 31 33 31 32 32 34 34 34 35 37 37 34 33 32 33 32 32 31 32 32 31 31 31 30 31 31
24 21 19 32 31 40 51 42 37 38 32 40 34 37 27 15 19 21 24 27 29 32 33 34 36 36 36 36 36 36 36 31 30 31 31 31 31 32 33 33 32 31 32 32
7 7 2 14 15 8 13 26 20 28 22 15 35 27 18 16 20 25 29 29 32 33 36 35 35 35 34 34 37 38 32 29 29 29 30 30 30 31 32 33 34 33 33 34
6 6 4 9 6 9 12 10 13 16 19 15 21 16 17 22 26 28 28 31 31 31 32 32 34 34 33 32 33 32 30 28 29 29 29 29 29 31 33 35 36 36 35 35
12 11 10 9 12 12 13 18 20 18 15 14 16 20 24 26 25 29 28 25 27 29 31 30 28 29 28 28 31 27 26 26 26 28 30 32 33 34 35 36 36 36 36 36
16 16 15 16 19 17 17 22 19 17 17 19 23 27 27 23 21 24 25 28 24 24 28 27 29 28 27 26 26 25 26 26 26 28 31 32 34 35 37 37 37 37 38 37
19 21 22 23 22 21 20 18 19 21 20 21 20 21 21 23 23 25 26 30 28 31 28 22 26 28 28 28 30 30 31 31 33 35 35 36 36 35 35 36 37 38 38 39
26 26 26 25 21 19 18 16 15 13 15 18 20 22 25 25 25 27 27 28 30 30 27 31 34 29 33 32 31 33 33 34 36 36 35 33 34 36 36 35 36 37 38 39
22 22 18 19 19 19 18 17 17 17 17 22 26 28 29 27 27 28 29 28 28 29 30 32 32 26 31 32 35 35 35 34 33 33 35 38 36 36 37 38 39 39 39 40
29 25 15 13 12 9 9 13 16 21 25 28 29 30 29 27 28 30 29 31 32 34 32 30 28 30 33 34 38 41 41 39 41 41 41 36 36 39 41 41 41 43 43 43
8 13 15 14 14 15 16 18 22 24 27 29 29 30 30 30 30 31 32 33 34 33 31 32 36 39 40 43 44 43 41 42 42 40 38 42 44 45 42 41 41 41 42 41
17 18 16 17 17 17 18 21 24 25 27 29 30 29 28 31 31 31 31 30 31 33 35 38 42 44 45 44 43 42 41 44 45 44 41 47 50 49 48 47 45 44 41 38
5 10 13 15 17 19 19 21 24 27 29 30 31 30 31 31 29 31 32 34 37 40 41 41 42 44 45 45 45 45 44 43 43 43 45 46 47 47 46 46 46 45 46 45
13 13 14 15 17 19 22 24 26 28 29 31 34 33 33 34 36 37 37 38 41 42 43 45 46 45 44 44 44 43 43 43 44 45 46 47 48 48 49 50 49 49 48 50
11 12 13 13 14 18 22 26 28 30 31 32 33 34 36 37 37 38 38 38 39 42 43 43 43 44 44 45 46 47 47 48 48 48 48 48 49 50 51 52 52 52 51 51
10 12 15 17 20 23 25 26 27 28 29 31 32 32 33 35 35 36 36 37 37 38 39 41 42 44 46 47 47 48 47 47 48 50 52 54 55 56 56 57 58 58 57 56
18 19 20 22 25 28 29 30 31 31 32 32 33 34 36 37 38 39 39 40 41 41 42 42 43 43 45 46 47 48 50 52 54 55 55 56 56 56 56 56 56 56 57 58
Wind_Direction
280 214 223 227 231 237 241 246 248 233 240 256 283 284 292 316 319 312 306 312 320 324 319 316 308 307 312 304 298 299 297 297 296 293 289 289 292 292 290 288 286 286 286 286
249 259 239 229 230 234 244 251 246 241 238 249 268 284 279 294 311 317 304 293 309 327 315 306 305 307 305 301 296 292 293 296 293 288 286 284 282 281 280 278 278 278 280 281
250 253 254 246 231 237 244 252 251 244 240 248 270 270 278 291 312 301 320 301 297 299 299 295 288 289 292 292 289 289 290 298 302 298 289 281 279 275 275 274 273 274 276 278
246 256 266 265 238 235 242 251 246 241 241 253 256 266 283 292 307 291 296 304 306 288 279 277 275 276 282 288 286 290 291 299 304 301 299 294 286 279 275 274 275 276 277 280
246 259 267 275 243 235 239 254 263 249 252 251 245 259 269 281 292 292 288 284 304 273 254 259 269 277 286 287 286 291 296 299 297 295 294 294 293 286 280 277 276 276 278 280
253 260 271 278 241 233 238 251 258 250 270 245 273 284 286 283 287 285 282 281 290 307 226 251 264 275 274 274 280 280 286 290 288 287 287 288 286 285 281 278 277 279 279 278
255 258 266 274 247 232 240 245 260 264 261 263 273 265 263 276 285 284 281 293 296 302 306 291 275 278 284 287 287 282 286 287 287 287 284 285 283 281 281 277 277 278 279 280
254 255 253 266 269 242 242 249 251 255 262 261 269 272 266 279 283 285 290 293 284 288 293 281 273 277 281 283 285 285 286 286 284 285 285 282 282 279 278 275 277 275 276 277
255 257 253 258 260 264 245 247 255 257 260 267 271 274 278 283 282 286 278 285 283 279 283 286 282 282 282 285 286 288 289 288 287 287 285 280 283 278 275 274 276 273 273 275
255 256 270 259 254 255 256 248 248 254 258 261 262 265 265 266 252 255 270 272 270 273 276 281 282 284 285 287 284 282 284 286 286 285 283 280 281 276 273 275 277 275 276 276
274 255 264 270 256 254 254 254 260 266 272 266 269 264 247 236 253 265 267 269 277 284 283 281 284 286 284 280 279 283 286 284 285 285 282 281 281 278 276 276 275 274 277 279
267 270 254 246 270 253 253 254 261 255 283 263 265 263 231 232 255 270 279 281 283 284 289 290 289 288 286 285 289 292 290 287 288 286 282 281 278 275 274 277 277 277 280 282
285 149 291 231 227 231 231 242 264 253 268 294 247 239 243 277 285 288 289 294 296 295 293 294 292 289 288 288 289 288 287 286 288 287 283 281 278 276 277 279 279 279 282 285
240 259 269 223 197 221 225 232 260 236 235 238 234 289 289 284 291 294 292 286 283 281 277 283 286 288 286 290 290 284 284 285 287 287 284 283 283 282 282 283 281 280 281 283
224 226 250 223 207 201 227 229 235 240 244 258 266 273 274 282 285 284 283 279 284 285 286 291 290 288 286 283 276 279 283 285 286 285 285 286 286 285 283 282 280 279 280 282
237 237 224 227 222 238 236 230 241 256 260 261 265 269 273 276 287 290 282 285 282 296 292 289 283 283 287 287 286 287 287 286 286 285 285 284 284 285 285 283 280 279 280 282
246 246 247 243 238 236 244 248 251 248 254 264 266 284 295 293 291 291 280 283 268 294 292 282 283 288 286 292 295 297 288 283 287 287 285 286 287 285 285 285 284 283 283 283
259 253 254 258 255 254 253 259 267 268 267 273 271 268 279 287 288 286 284 284 284 294 290 277 297 282 291 295 293 295 292 286 285 285 284 284 285 283 284 284 282 282 283 284
259 252 244 244 247 246 247 252 257 265 270 277 281 284 288 286 283 285 288 293 295 297 292 290 281 278 282 288 297 300 297 295 295 295 290 289 285 284 286 287 287 286 285 284
258 246 231 231 250 255 238 253 270 275 283 284 284 281 282 284 286 285 287 288 288 292 288 287 284 278 285 288 296 297 292 293 295 294 291 289 290 290 288 287 288 289 288 286
225 227 244 251 248 258 265 272 277 281 284 284 284 284 285 288 288 284 283 286 288 287 284 285 287 287 287 291 293 296 289 288 296 297 290 286 288 291 289 290 290 288 285 284
230 233 243 247 257 267 277 283 286 287 286 285 284 288 288 291 289 289 287 287 287 286 286 288 289 289 291 292 293 292 290 290 292 292 287 283 286 288 290 291 291 289 286 281
241 254 265 269 270 276 283 289 292 291 290 289 289 290 291 292 292 293 292 289 288 289 290 291 291 292 292 293 292 291 291 290 288 286 284 284 283 285 285 285 285 285 282 278
262 265 266 265 272 281 284 283 286 288 288 288 290 294 294 292 293 293 291 292 292 291 293 293 293 291 290 290 289 289 287 286 285 285 285 285 286 286 285 284 283 282 279 276
258 262 267 272 277 279 282 283 284 283 285 288 292 293 293 291 290 290 289 289 288 289 290 292 293 294 294 294 294 293 292 292 291 290 289 289 289 288 286 285 283 281 281 278
261 268 270 275 280 282 284 287 288 290 293 296 297 298 298 297 296 295 294 293 292 292 291 291 291 292 292 292 292 291 290 289 289 289 289 288 287 286 284 284 283 282 280 278
269 275 282 288 294 297 298 299 300 302 302 301 300 300 299 299 299 299 299 299 299 298 296 295 294 294 294 293 293 293 293 293 293 292 292 291 290 289 287 286 284 282 281 280
Height
5875 5879 5880 5881 5882 5883 5882 5883 5884 5888 5889 5891 5891 5892 5893 5892 5891 5891 5889 5887 5886 5885 5885 5886 5885 5883 5881 5883 5883 5881 5879 5874 5872 5871 5871 5869 5868 5867 5866 5865 5865 5864 5863 5863
5870 5872 5871 5873 5875 5876 5878 5879 5880 5883 5885 5887 5886 5886 5889 5890 5892 5889 5887 5886 5886 5885 5884 5883 5882 5881 5880 5882 5880 5876 5874 5869 5865 5864 5863 5863 5862 5861 5860 5860 5859 5859 5858 5857
5865 5866 5867 5867 5869 5871 5872 5874 5876 5878 5882 5883 5883 5884 5885 5887 5889 5886 5885 5883 5882 5882 5881 5880 5879 5878 5876 5876 5877 5873 5869 5865 5860 5858 5856 5854 5855 5855 5854 5854 5853 5852 5852 5851
5859 5859 5859 5860 5862 5865 5867 5869 5872 5874 5877 5880 5880 5881 5882 5884 5884 5883 5882 5882 5880 5880 5877 5875 5875 5873 5871 5871 5871 5867 5863 5860 5856 5855 5852 5850 5847 5847 5847 5847 5846 5845 5844 5843
5852 5853 5852 5852 5854 5858 5862 5864 5866 5868 5870 5872 5876 5877 5879 5880 5879 5878 5876 5874 5871 5870 5869 5869 5868 5867 5866 5866 5866 5861 5860 5855 5852 5849 5847 5846 5844 5841 5840 5839 5839 5838 5837 5835
5847 5847 5846 5847 5848 5851 5855 5857 5860 5862 5863 5865 5869 5873 5875 5875 5874 5871 5869 5865 5857 5848 5857 5861 5860 5859 5859 5857 5855 5853 5850 5846 5845 5842 5839 5838 5837 5836 5833 5832 5831 5831 5829 5828
5839 5840 5842 5842 5843 5845 5848 5853 5854 5855 5857 5860 5863 5866 5869 5869 5868 5867 5864 5863 5859 5858 5856 5855 5853 5851 5852 5850 5848 5847 5845 5841 5839 5835 5833 5830 5828 5827 5825 5824 5823 5821 5821 5819
5833 5834 5836 5836 5839 5842 5844 5842 5847 5850 5852 5852 5852 5856 5861 5862 5860 5857 5858 5853 5851 5850 5850 5849 5847 5844 5842 5841 5840 5837 5834 5831 5828 5825 5824 5824 5821 5819 5818 5816 5816 5814 5813 5812
5827 5828 5829 5833 5834 5836 5839 5840 5840 5841 5842 5845 5846 5845 5846 5847 5849 5848 5847 5846 5844 5843 5841 5837 5837 5835 5834 5833 5831 5830 5827 5823 5820 5818 5815 5814 5813 5811 5810 5809 5808 5806 5805 5804
5818 5821 5823 5824 5825 5829 5831 5832 5834 5836 5836 5839 5840 5840 5840 5839 5839 5841 5840 5838 5836 5834 5834 5832 5832 5829 5827 5823 5822 5821 5816 5813 5812 5809 5807 5805 5804 5804 5802 5800 5799 5798 5796 5795
5811 5812 5814 5813 5816 5817 5821 5824 5831 5831 5831 5832 5831 5832 5828 5830 5831 5832 5830 5830 5829 5826 5825 5823 5819 5816 5816 5815 5813 5809 5807 5804 5802 5800 5798 5796 5795 5795 5793 5792 5791 5789 5787 5786
5805 5806 5805 5807 5808 5806 5811 5820 5824 5825 5819 5818 5820 5818 5817 5818 5823 5824 5822 5819 5817 5816 5813 5810 5809 5807 5804 5802 5799 5796 5797 5794 5792 5791 5789 5787 5786 5785 5784 5783 5782 5780 5778 5776
5799 5801 5800 5800 5802 5802 5807 5810 5814 5814 5809 5809 5810 5812 5813 5816 5815 5813 5812 5809 5806 5804 5800 5798 5797 5796 5795 5791 5789 5789 5787 5784 5782 5780 5780 5778 5777 5777 5776 5775 5772 5770 5769 5767
5794 5797 5797 5798 5800 5800 5802 5802 5803 5804 5804 5804 5806 5798 5800 5805 5804 5804 5803 5803 5801 5799 5796 5793 5791 5787 5784 5782 5782 5781 5778 5773 5771 5771 5771 5770 5769 5768 5766 5765 5762 5761 5759 5757
5787 5790 5793 5794 5796 5797 5798 5799 5800 5799 5799 5800 5798 5797 5799 5800 5799 5799 5797 5794 5791 5788 5785 5783 5781 5780 5777 5776 5775 5770 5768 5765 5763 5763 5763 5761 5760 5758 5756 5755 5753 5751 5749 5748
5783 5784 5789 5790 5792 5792 5793 5793 5792 5792 5793 5793 5793 5792 5794 5793 5792 5791 5788 5786 5783 5780 5778 5776 5774 5772 5770 5769 5766 5761 5757 5756 5754 5753 5753 5751 5750 5748 5746 5745 5743 5741 5739 5737
5780 5781 5780 5781 5784 5786 5786 5786 5788 5788 5786 5786 5787 5785 5786 5786 5784 5783 5780 5778 5776 5773 5772 5768 5766 5764 5762 5760 5756 5752 5748 5746 5745 5743 5742 5740 5739 5737 5735 5733 5731 5730 5728 5725
5772 5774 5775 5776 5776 5777 5778 5777 5777 5776 5778 5779 5780 5779 5778 5776 5775 5775 5771 5770 5767 5765 5762 5759 5755 5753 5752 5748 5744 5742 5739 5737 5734 5732 5731 5729 5728 5726 5724 5722 5720 5718 5716 5714
5765 5766 5766 5768 5768 5769 5769 5771 5773 5774 5774 5774 5773 5771 5770 5768 5767 5765 5762 5760 5757 5755 5752 5749 5747 5745 5744 5740 5736 5733 5730 5727 5725 5723 5721 5719 5716 5714 5711 5709 5707 5705 5704 5702
5756 5758 5759 5761 5763 5765 5767 5768 5768 5768 5768 5768 5766 5765 5762 5760 5758 5756 5754 5751 5748 5745 5742 5739 5736 5735 5733 5730 5727 5724 5721 5717 5714 5711 5708 5707 5704 5701 5699 5697 5695 5693 5691 5689
5748 5753 5756 5757 5758 5760 5760 5761 5761 5761 5760 5758 5757 5755 5753 5750 5747 5745 5743 5741 5738 5735 5733 5731 5729 5727 5724 5720 5716 5713 5709 5706 5703 5699 5696 5694 5691 5689 5686 5684 5681 5680 5678 5676
5745 5748 5750 5752 5753 5753 5753 5753 5753 5751 5750 5749 5748 5744 5741 5739 5736 5734 5733 5731 5729 5726 5723 5720 5716 5713 5709 5705 5702 5699 5697 5693 5689 5687 5685 5682 5679 5676 5673 5670 5668 5666 5664 5663
5744 5745 5745 5744 5745 5746 5746 5745 5744 5742 5741 5739 5737 5733 5731 5729 5726 5724 5722 5719 5717 5714 5710 5707 5704 5700 5696 5694 5691 5687 5683 5680 5678 5675 5672 5669 5666 5662 5660 5657 5654 5652 5650 5649
5741 5740 5740 5741 5742 5742 5741 5739 5737 5735 5733 5731 5729 5724 5722 5719 5717 5713 5710 5707 5704 5701 5697 5694 5690 5687 5684 5681 5677 5674 5671 5667 5664 5661 5658 5654 5651 5647 5644 5641 5639 5637 5635 5632
5737 5737 5737 5737 5737 5737 5735 5734 5732 5730 5727 5724 5720 5716 5713 5709 5706 5703 5700 5696 5693 5689 5685 5681 5677 5673 5669 5666 5662 5659 5655 5652 5648 5644 5640 5637 5633 5630 5627 5624 5621 5619 5617 5616
5734 5733 5734 5734 5733 5731 5729 5727 5724 5721 5717 5713 5710 5706 5703 5699 5696 5693 5689 5686 5682 5678 5675 5671 5666 5662 5658 5653 5649 5645 5641 5637 5633 5629 5625 5621 5617 5613 5609 5605 5601 5598 5596 5595
5731 5729 5728 5726 5724 5722 5719 5716 5713 5709 5706 5703 5699 5696 5692 5689 5685 5681 5677 5673 5669 5665 5661 5657 5653 5648 5644 5639 5634 5630 5625 5620 5615 5610 5605 5601 5596 5592 5588 5584 5581 5578 5575 5572